La Vergne, TN

6:08 AM CDT on August 24, 2016 (GMT -0500)
Smyrna

Weather History for KMQY - April, 2012

Change the Weather History Date:

Sunday, April 1, 2012

  Actual Average Record
Temperature  
Mean Temperature 69 °F -  
Max Temperature 88 °F 63 °F 88 °F (2012)
Min Temperature 52 °F 46 °F 36 °F (2009)
Cooling Degree Days 4    
Growing Degree Days 19 (Base 50)    
Moisture  
Dew Point 57 °F    
Average Humidity 90    
Maximum Humidity 100    
Minimum Humidity 43    
Precipitation  
Precipitation 0.00 in - - ()
Sea Level Pressure  
Sea Level Pressure 29.85 in    
Wind  
Wind Speed 1 mph (SSW)    
Max Wind Speed 13 mph    
Max Gust Speed 17 mph    
Visibility 4 miles    
Events Fog    
Averages and records for this station are not official NWS values.
T = Trace of Precipitation, MM = Missing Value Source: NWS Daily Summary

Daily Weather History Graph

Daily Weather History Graph

Search for Another Location

Airport or City:

Trip Planner

Search our weather history database for the weather conditions in past years. The results will help you decide how hot, cold, wet, or windy it might be!

Date:

Astronomy

Apr. 01, 2012 Rise Set
Actual Time 6:31 AM CDT 7:08 PM CDT
Civil Twilight 6:05 AM CDT 7:34 PM CDT
Nautical Twilight 5:35 AM CDT 8:04 PM CDT
Astronomical Twilight 5:04 AM CDT 8:35 PM CDT
Moon 1:48 PM CDT (4/1) 2:57 AM CDT (4/1)
Length of Visible Light 13h 28m
Length of Day
12h 36m
Waxing Gibbous, 69% of the Moon is Illuminated
Apr 1
Waxing Gibbous
Apr 6
Full
Apr 13
Last Quarter
Apr 21
New
Apr 29
First Quarter

Hourly Weather History & Observations

Time (CDT) Temp. Heat Index Dew Point Humidity Pressure Visibility Wind Dir Wind Speed Gust Speed Precip Events Conditions
12:56 AM 54.9 °F - 54.9 °F 100% 29.87 in 1.2 mi Calm Calm - N/A   Clear
1:03 AM 55.4 °F - 55.4 °F 100% 29.89 in 2.0 mi Calm Calm - N/A   Clear
1:11 AM 55.4 °F - 55.4 °F 100% 29.89 in 3.0 mi Calm Calm - N/A   Clear
1:14 AM 55.4 °F - 55.4 °F 100% 29.89 in 1.8 mi Calm Calm - N/A   Clear
1:19 AM 55.4 °F - 55.4 °F 100% 29.89 in 1.0 mi Calm Calm - N/A   Clear
1:24 AM 55.4 °F - 55.4 °F 100% 29.89 in 1.5 mi Calm Calm - N/A   Clear
1:28 AM 55.4 °F - 55.4 °F 100% 29.89 in 3.0 mi Calm Calm - N/A   Clear
1:32 AM 55.4 °F - 55.4 °F 100% 29.89 in 1.2 mi Calm Calm - N/A   Clear
1:34 AM 55.4 °F - 55.4 °F 100% 29.89 in 0.8 mi Calm Calm - N/A   Clear
1:40 AM 55.4 °F - 55.4 °F 100% 29.89 in 0.2 mi Calm Calm - N/A Fog Fog
1:49 AM 55.4 °F - 55.4 °F 100% 29.89 in 0.8 mi Calm Calm - N/A   Clear
1:56 AM 55.9 °F - 55.9 °F 100% 29.87 in 2.0 mi Calm Calm - N/A   Clear
2:13 AM 53.6 °F - 53.6 °F 100% 29.88 in 4.0 mi Calm Calm - N/A   Clear
2:25 AM 55.4 °F - 55.4 °F 100% 29.88 in 1.5 mi Calm Calm - N/A   Clear
2:30 AM 55.4 °F - 55.4 °F 100% 29.88 in 1.0 mi Calm Calm - N/A   Clear
2:36 AM 55.4 °F - 55.4 °F 100% 29.88 in 1.5 mi Calm Calm - N/A   Clear
2:46 AM 55.4 °F - 55.4 °F 100% 29.88 in 1.0 mi Calm Calm - N/A   Clear
2:48 AM 55.4 °F - 55.4 °F 100% 29.88 in 0.5 mi Calm Calm - N/A Fog Fog
3:13 AM 53.6 °F - 53.6 °F 100% 29.87 in 0.2 mi Calm Calm - N/A Fog Fog
3:21 AM 53.6 °F - 53.6 °F 100% 29.87 in 0.2 mi Calm Calm - N/A Fog Fog
3:38 AM 53.6 °F - 53.6 °F 100% 29.86 in 0.5 mi Calm Calm - N/A Fog Fog
3:56 AM 54.9 °F - 54.9 °F 100% 29.84 in 0.2 mi Calm Calm - N/A Fog Fog
4:06 AM 55.4 °F - 55.4 °F 100% 29.87 in 0.5 mi Calm Calm - N/A Fog Fog
4:35 AM 53.6 °F - 53.6 °F 100% 29.87 in 1.0 mi Calm Calm - N/A   Clear
4:39 AM 53.6 °F - 53.6 °F 100% 29.87 in 0.5 mi Calm Calm - N/A Fog Fog
4:56 AM 52.9 °F - 52.9 °F 100% 29.85 in 0.2 mi Calm Calm - N/A Fog Fog
5:34 AM 53.6 °F - 53.6 °F 100% 29.88 in 0.8 mi Calm Calm - N/A   Clear
5:38 AM 53.6 °F - 53.6 °F 100% 29.88 in 1.2 mi Calm Calm - N/A   Clear
5:42 AM 53.6 °F - 53.6 °F 100% 29.88 in 0.8 mi Calm Calm - N/A   Clear
5:49 AM 53.6 °F - 53.6 °F 100% 29.88 in 0.5 mi Calm Calm - N/A Fog Fog
5:56 AM 52.9 °F - 52.9 °F 100% 29.86 in 1.0 mi Calm Calm - N/A   Clear
6:04 AM 53.6 °F - 53.6 °F 100% 29.88 in 0.5 mi Calm Calm - N/A Fog Fog
6:16 AM 53.6 °F - 53.6 °F 100% 29.87 in 1.0 mi Calm Calm - N/A   Clear
6:23 AM 53.6 °F - 53.6 °F 100% 29.88 in 1.5 mi Calm Calm - N/A   Clear
6:27 AM 53.6 °F - 53.6 °F 100% 29.88 in 3.0 mi Calm Calm - N/A   Clear
6:38 AM 53.6 °F - 53.6 °F 100% 29.87 in 1.8 mi Calm Calm - N/A   Clear
6:47 AM 53.6 °F - 53.6 °F 100% 29.88 in 1.2 mi Calm Calm - N/A   Clear
6:56 AM 54.0 °F - 54.0 °F 100% 29.86 in 2.5 mi Calm Calm - N/A   Clear
7:04 AM 55.4 °F - 55.4 °F 100% 29.88 in 5.0 mi South 4.6 mph - N/A   Clear
7:56 AM 56.8 °F - 56.8 °F 100% 29.86 in 6.0 mi Calm Calm - N/A   Clear
8:56 AM 61.9 °F - 61.9 °F 100% 29.86 in 10.0 mi South 5.8 mph - N/A   Clear
9:56 AM 68.9 °F - 61.9 °F 78% 29.85 in 10.0 mi South 5.8 mph - N/A   Clear
10:56 AM 77.9 °F - 63.9 °F 62% 29.85 in 10.0 mi WSW 8.1 mph - 0.00 in   Clear
11:56 AM 82.9 °F 84.2 °F 63.9 °F 52% 29.83 in 10.0 mi WSW 6.9 mph - N/A   Clear
1:56 PM 86.9 °F 88.1 °F 63.9 °F 46% 29.79 in 10.0 mi WSW 11.5 mph 16.1 mph N/A   Clear
2:56 PM 84.9 °F 85.9 °F 63.0 °F 48% 29.77 in 10.0 mi SSW 11.5 mph 17.3 mph 0.00 in   Scattered Clouds
3:56 PM 86.0 °F 86.1 °F 61.0 °F 43% 29.73 in 10.0 mi SW 12.7 mph 17.3 mph N/A   Partly Cloudy
4:56 PM 84.9 °F 85.0 °F 61.0 °F 44% 29.73 in 10.0 mi SW 10.4 mph 17.3 mph N/A   Partly Cloudy
5:56 PM 82.9 °F 83.3 °F 61.0 °F 47% 29.73 in 10.0 mi SW 10.4 mph - N/A   Clear
6:56 PM 79.9 °F - 61.0 °F 52% 29.73 in 10.0 mi SSW 5.8 mph - N/A   Clear
7:56 PM 74.8 °F - 61.0 °F 62% 29.73 in 10.0 mi SSW 4.6 mph - N/A   Clear
8:56 PM 73.9 °F - 61.0 °F 64% 29.74 in 10.0 mi SW 5.8 mph - 0.00 in   Clear
9:56 PM 70.9 °F - 61.0 °F 71% 29.75 in 10.0 mi Calm Calm - N/A   Clear
10:56 PM 70.0 °F - 61.0 °F 73% 29.74 in 10.0 mi Calm Calm - N/A   Clear
11:56 PM 65.8 °F - 61.0 °F 84% 29.75 in 10.0 mi South 4.6 mph - 0.00 in   Clear